Torna al catalogo

FENGYUN 1C DEB

AttivoSSO
NORAD 37404·DEBRIS·🇨🇳 China

Lanciato May 10, 1999 da Taiyuan Satellite Launch Center

Loading…

Prossimi Passaggi (prossime 24 ore)

TLE

AggiornatoSource: Space-Track

Epoca: Sep 13, 2026, 22:59 UTC

1 37404U 99025EFW 26256.95818308  .00000840  00000-0  32203-3 0  9991
2 37404  98.4590 257.9127 0045001  69.0891 322.2973 14.32528581866806

Traccia FENGYUN 1C DEB in tempo reale con AllMySat

Download on the App Store